sat.trackr.live / text

‹ back to catalog

STARLINK-3943

NORAD 52557 · 2022-051AA

PAYLOAD ACTIVE UNKNOWN

§ Identity

Operator
Country
US
Launch date
2022-05-13
Launch site
AFWTR
Launch vehicle
Mass (kg)
RCS (m²)

Purposes: comms

External: N2YO · Heavens-Above · Gunter

§ Orbital elements

Epoch: 2026-09-19T21:13:39.459072Z

Period
93.85 min
Inclination
53.1603°
Eccentricity
0.0000982
Mean motion
15.34389624 rev/d
Perigee alt
462.1 km
Apogee alt
463.4 km
Semi-major
6,840.9 km
B*
3.7706e-5
RAAN
324.9533°
Arg perigee
74.8644°
Mean anomaly
285.2467°
Rev number
24,093

§ Raw data

STARLINK-39431 52557U 22051AA  26262.88448448  .00000898  00000+0  37706-4 0  99912 52557  53.1603 324.9533 0000982  74.8644 285.2467 15.34389624240932

JSON: /api/v1/satellites/52557 · /tle

For live sub-satellite position, see the globe view (requires WebGL).

§ Visibility from observer

Set your observer location to see the next 7 days of passes ≥ 10°. The values pass through the URL so the page stays shareable.

No JS? Fill the form by hand. The geolocation button needs JavaScript.